Regional Weather Roundup
Issued by NWS

Home | Current Version | Previous Version | Graphics & Text | Print | Product List | Glossary On
Versions: 1 2 3 4 5 6 7 8 9 10 11 12 13 14 15 16 17 18 19 20 21 22 23 24 25 26 27 28 29 30 31 32 33 34 35 36 37 38 39 40 41 42 43 44 45 46 47 48 49 50
073
ASUS43 KOAX 311902
RWRNE

WEATHER ROUNDUP FOR NEBRASKA
NATIONAL WEATHER SERVICE OMAHA NE
200 PM CDT TUE MAY 31 2016

NOTES: SATELLITE DATA IS BEING USED TO AUGMENT CLOUD COVER ABOVE
       12000 FEET.
       "FAIR" INDICATES FEW OR NO CLOUDS BELOW 12,000 FEET WITH NO
       SIGNIFICANT WEATHER AND/OR OBSTRUCTIONS TO VISIBILITY.

  * THESE STATIONS DO NOT REPORT WEATHER SUCH AS RAIN...SNOW OR FOG.

NEZ001>004-019>022-054>056-312000-
NEBRASKA PANHANDLE

CITY           SKY/WX    TMP DP  RH WIND       PRES   REMARKS
SCOTTSBLUFF    MOSUNNY   67  40  37 W9G20     30.07F
ALLIANCE       SUNNY     67  38  34 W17       30.04F
CHADRON        MOSUNNY   70  34  26 W18G35    30.02F
SIDNEY         CLOUDY    59  42  53 NW6       30.11F
$$

NEZ057>060-069>072-079>082-312000-
SOUTHWEST NEBRASKA

CITY           SKY/WX    TMP DP  RH WIND       PRES   REMARKS
NORTH PLATTE   MOSUNNY   66  44  45 NW6       30.06F
IMPERIAL       MOSUNNY   64  44  48 CALM      30.07F
LEXINGTON      PTSUNNY   67  48  50 N6        30.04S
MCCOOK         SUNNY     69  46  43 N7        30.05F
$$

NEZ005>010-023>029-035>040-094-312000-
NORTH CENTRAL NEBRASKA

CITY           SKY/WX    TMP DP  RH WIND       PRES   REMARKS
VALENTINE      SUNNY     71  39  31 W24G35    29.96F
AINSWORTH      SUNNY     70  42  35 W20G26    29.97F
BROKEN BOW     CLOUDY    64  44  48 W5        30.02F
ORD            CLOUDY    70  41  34 W6        29.99F
$$

NEZ041-046>049-061>064-073>077-083>087-312000-
SOUTH CENTRAL NEBRASKA

CITY           SKY/WX    TMP DP  RH WIND       PRES   REMARKS
GRAND ISLAND   SUNNY     72  48  42 NW10      30.00F
HASTINGS       SUNNY     70  52  52 N8G17     30.00F
HEBRON         CLOUDY    69  58  66 N9        29.98F
HOLDREGE       SUNNY     68  45  43 N9        30.02S
KEARNEY *      SUNNY     72  45  37 N9        30.01F
YORK           MOSUNNY   68  55  64 N9G17     29.99F
$$

NEZ011>018-030>034-042>045-312000-
NORTHEAST NEBRASKA

CITY           SKY/WX    TMP DP  RH WIND       PRES   REMARKS
NORFOLK        SUNNY     70  47  43 NW10      29.96F
ALBION         MOSUNNY   69  46  44 N6        29.99S
FREMONT        MOSUNNY   72  56  58 NW9G17    29.96S
TEKAMAH        CLOUDY    73  55  53 NW13      29.94S
$$

NEZ050>053-065>068-078-088>093-312000-
SOUTHEAST NEBRASKA

CITY           SKY/WX    TMP DP  RH WIND       PRES   REMARKS
LINCOLN        PTSUNNY   73  57  57 N12       29.96S
OMAHA EPPLEY   CLOUDY    73  60  63 NW10      29.92F
BEATRICE       CLOUDY    71  58  64 N8        29.96R
PLATTSMOUTH    PTSUNNY   74  62  66 NW6       29.93F
$$

NEZ044-045-051>053-067-312000-
OMAHA AREA

CITY           SKY/WX    TMP DP  RH WIND       PRES   REMARKS
OMAHA EPPLEY   CLOUDY    73  60  63 NW10      29.92F
FREMONT        MOSUNNY   72  56  58 NW9G17    29.96S
OFFUTT AFB     PTSUNNY   74  61  63 NW14      29.92F
PLATTSMOUTH    PTSUNNY   74  62  66 NW6       29.93F
WAHOO          FAIR      73  53  50 N12G18    29.95S
$$




USA.gov is the U.S. government's official web portal to all federal, state and local government web resources and services.